{"data":{"norad_id":47814,"epoch":"2026-09-20T01:51:39.343680Z","epoch_age_seconds":62289,"freshness":"FRESH","line1":"1 47814U 21018AD  26263.07753870  .00033862  00000+0  98530-3 0  9991","line2":"2 47814  53.1574  57.5487 0000119 175.1646 184.9358 15.35143328306583","mean_motion":15.35143328,"eccentricity":1.19e-5,"inclination_deg":53.1574,"raan_deg":57.5487,"arg_perigee_deg":175.1646,"mean_anomaly_deg":184.9358,"bstar":0.0009853,"rev_number":30658,"period_min":93.802316287695,"perigee_km":460.41342454888,"apogee_km":460.57618398582,"semimajor_km":6838.6318042673,"source":"CELESTRAK","updated_at":"2026-09-20T09:00:38.748562Z"}}